#timestamp,LO_Frequency,Hit 
1497142815.2,286046903.7,N
1497142835.0,286046906.3,N
1497142835.9,286046906.3,N
1497142855.8,286046906.0,N
1497142875.6,286046905.6,N
1497142895.4,286046906.4,N
1497142915.3,286046904.2,N
1497142935.1,286046903.7,N
1497142955.9,286046906.3,N
1497142975.7,286046906.5,N
1497142995.5,286046908.2,N
1497143015.4,286046907.9,N
1497143035.2,286046907.9,N
1497143055.0,286046908.1,N
1497143055.9,286046908.1,N
1497143075.8,286046908.4,N
1497143095.6,286046905.6,N
1497143115.5,286046906.1,N
1497143135.3,286046906.6,N
1497143155.1,286046905.8,N
1497143175.9,286046908.3,N
1497143195.7,286046905.3,N
1497143215.5,286046908.1,N
1497143235.4,286046906.9,N
1497143255.2,286046908.1,N
1497143275.1,286046906.2,N
1497143276.0,286046906.2,N
1497143295.8,286046905.7,N
1497143315.6,286046907.9,N
1497143335.5,286046907.0,N
1497143355.3,286046909.0,N
1497143375.1,286046909.4,N
1497143395.9,286046907.6,N
1497143415.7,286046907.4,N
1497143435.6,286046907.8,N
1497143455.4,286046907.1,N
1497143475.2,286046905.4,N
1497143495.1,286046908.4,N
1497143496.0,286046908.4,N
1497143515.8,286046907.6,N
1497143535.7,286046908.3,N
1497143555.5,286046908.0,N
1497143575.3,286046905.8,N
1497143595.2,286046908.2,N
1497143615.0,286046905.6,N
1497143615.9,286046905.6,N
1497143635.8,286046908.1,Y
1497143655.6,286046999.7,N
1497143675.4,286047002.5,N
1497143695.3,286047003.7,N
1497143715.1,286047001.3,N
1497143735.9,286047002.5,N
1497143755.7,286047000.0,N
1497143775.5,286046999.8,N
1497143795.4,286046999.9,N
1497143815.2,286047000.1,N
1497143835.0,286046999.9,N
1497143835.9,286046999.9,N
1497143855.8,286047001.2,N
1497143875.6,286047001.2,N
1497143895.5,286046998.6,N
1497143915.3,286047000.3,N
1497143935.1,286046999.7,N
1497143955.9,286047001.1,N
1497143975.7,286047000.9,N
1497143995.6,286047000.9,N
1497144015.4,286047000.7,N
1497144035.2,286046998.7,N
1497144055.1,286047000.3,N
1497144056.0,286047000.3,N
1497144075.8,286047000.0,N
1497144095.6,286047000.4,N
1497144115.5,286047000.5,N
1497144135.3,286047000.2,N
1497144155.2,286047000.4,N
1497144175.0,286047000.6,N
1497144175.9,286047000.6,N
1497144195.7,286047001.1,N
1497144215.6,286047001.0,N
1497144235.4,286047000.0,N
1497144255.3,286047002.7,N
1497144275.1,286047000.4,N
1497144276.0,286047000.4,N
1497144295.8,286047000.5,N
1497144315.7,286047002.3,N
1497144335.5,286047002.3,N
1497144355.3,286047000.4,N
1497144375.2,286047001.1,N
1497144395.0,286046999.8,N
1497144395.9,286046999.8,N
1497144415.8,286047002.6,N
1497144435.6,286047002.7,N
1497144455.4,286047000.0,N
1497144475.3,286047002.4,N
1497144495.1,286047001.6,N
1497144515.8,286047002.4,N
1497144535.7,286047000.1,N
1497144555.5,286047000.1,N
1497144575.4,286047000.5,N
1497144595.2,286047000.9,N
1497144615.0,286047002.6,N
1497144615.9,286047002.6,N
1497144635.8,286047000.6,N
1497144655.6,286046999.9,N
1497144675.4,286047000.7,N
1497144695.3,286046999.7,N
1497144715.1,286047000.7,N
1497144735.9,286046998.1,N
1497144755.7,286046999.7,N
1497144775.5,286047002.3,N
1497144795.4,286046999.9,N
1497144815.2,286047002.2,N
1497144835.0,286047001.2,N
1497144835.9,286047001.2,N
1497144855.8,286046998.3,N
1497144875.6,286047001.2,N
1497144895.5,286047002.7,N
1497144915.3,286047002.3,N
1497144935.1,286047000.2,N
1497144955.9,286047002.2,N
1497144975.7,286047000.0,N
1497144995.5,286047004.3,N
1497145015.4,286047003.2,N
1497145035.2,286047002.3,N
1497145055.1,286046999.7,N
1497145056.0,286046999.7,N
1497145075.8,286047000.2,N
1497145095.6,286047000.0,N
1497145115.5,286047000.4,N
1497145135.3,286047000.7,N
1497145155.1,286047000.3,N
1497145175.9,286047001.6,N
1497145195.7,286047002.4,N
1497145215.6,286047000.3,N
1497145235.4,286047001.0,N
1497145255.2,286047000.6,N
1497145275.1,286047002.5,N
1497145276.0,286047002.5,N
1497145295.8,286046999.8,N
1497145315.6,286047000.1,N
1497145335.5,286046999.7,N
1497145355.3,286046999.9,N
1497145375.1,286047000.3,N
1497145395.9,286047002.3,N
1497145415.7,286047000.1,N
1497145435.6,286046999.9,N
1497145455.4,286047000.0,N
1497145475.2,286047001.0,N
1497145495.1,286047000.8,N
1497145496.0,286047000.8,N
1497145515.8,286047002.5,N
1497145535.6,286047001.5,N
1497145555.5,286047001.5,N
1497145575.3,286047002.5,N
1497145595.2,286047002.1,N
1497145615.9,286047002.2,N
1497145635.7,286046999.7,N
1497145655.6,286047004.0,Y
1497145675.4,286047002.6,N
1497145695.2,286047000.0,N
1497145715.1,286046998.1,N
1497145716.0,286046998.1,N
1497145735.8,286046998.5,N
1497145755.7,286047000.8,N
1497145775.5,286046998.5,N
1497145795.3,286046998.2,N
1497145815.2,286046998.3,N
1497145835.0,286046998.2,N
1497145835.9,286046998.2,N
1497145855.7,286047000.8,N
1497145875.6,286047000.4,N
1497145895.4,286046999.8,N
1497145915.3,286046999.8,N
1497145935.1,286047002.8,N
1497145936.0,286047002.8,N
1497145955.8,286047000.6,N
1497145975.7,286047002.1,N
1497145995.5,286047000.2,N
1497146015.3,286047002.1,N
1497146035.2,286047001.5,N
1497146055.0,286047000.2,N
1497146055.9,286047000.2,N
1497146075.8,286047002.7,N
1497146095.6,286047003.8,N
1497146115.4,286047003.5,N
1497146135.3,286047004.3,N
1497146155.1,286047004.4,N
1497146156.0,286047004.4,N
1497146175.8,286047000.2,N
1497146195.7,286047001.2,N
1497146215.5,286047001.0,N
1497146235.3,286047000.9,N
1497146255.2,286046999.9,N
1497146275.0,286047000.4,N
1497146275.9,286047000.4,N
1497146295.8,286047000.2,N
1497146315.6,286047000.7,N
1497146335.4,286047000.7,N
1497146355.3,286047000.8,N
1497146375.1,286047000.8,N
1497146395.8,286047002.8,N
